Dallesport, WA

4:30 PM PDT on August 28, 2016 (GMT -0700)
Columbia Gorge Regional-The Dalles

Weather History for KDLS - October, 2011

Change the Weather History Date:

Monday, October 3, 2011

  Actual Average Record
Temperature  
Mean Temperature 60 °F -  
Max Temperature 66 °F 73 °F 90 °F (1958)
Min Temperature 55 °F 46 °F 34 °F (1964)
Degree Days  
Heating Degree Days 4    
Growing Degree Days 10 (Base 50)    
Moisture  
Dew Point 49 °F    
Average Humidity 71    
Maximum Humidity 86    
Minimum Humidity 45    
Precipitation  
Precipitation 0.08 in - - ()
Sea Level Pressure  
Sea Level Pressure 29.84 in    
Wind  
Wind Speed 4 mph (West)    
Max Wind Speed 12 mph    
Max Gust Speed -    
Visibility 10 miles    
Events Rain    
Averages and records for this station are not official NWS values.
T = Trace of Precipitation, MM = Missing Value Source: NWS Daily Summary

Daily Weather History Graph

Daily Weather History Graph

Search for Another Location

Airport or City:

Trip Planner

Search our weather history database for the weather conditions in past years. The results will help you decide how hot, cold, wet, or windy it might be!

Date:

Astronomy

Oct. 03, 2011 Rise Set
Actual Time 7:05 AM PDT 6:41 PM PDT
Civil Twilight 6:35 AM PDT 7:10 PM PDT
Nautical Twilight 6:01 AM PDT 7:45 PM PDT
Astronomical Twilight 5:26 AM PDT 8:20 PM PDT
Moon 2:23 PM PDT (10/3) 11:35 PM PDT (10/3)
Length of Visible Light 12h 35m
Length of Day
11h 36m
Waxing Crescent, 46% of the Moon is Illuminated
Oct 3
Waxing Crescent
Oct 3
First Quarter
Oct 11
Full
Oct 19
Last Quarter
Oct 26
New

Hourly Weather History & Observations

Time (PDT) Temp. Dew Point Humidity Pressure Visibility Wind Dir Wind Speed Gust Speed Precip Events Conditions
1:53 AM 57.9 °F 50.0 °F 75% 29.83 in 10.0 mi NW 3.5 mph - N/A   Clear
2:53 AM 57.0 °F 50.0 °F 77% 29.83 in 10.0 mi Calm Calm - N/A   Scattered Clouds
3:53 AM 57.0 °F 50.0 °F 77% 29.84 in 10.0 mi Calm Calm - N/A   Overcast
4:53 AM 57.0 °F 48.9 °F 74% 29.84 in 10.0 mi SSE 3.5 mph - N/A   Overcast
5:53 AM 57.0 °F 50.0 °F 77% 29.84 in 10.0 mi Calm Calm - 0.00 in   Mostly Cloudy
6:53 AM 55.9 °F 51.1 °F 84% 29.84 in 10.0 mi SSE 3.5 mph - 0.00 in   Overcast
7:53 AM 55.9 °F 51.1 °F 84% 29.85 in 10.0 mi Calm Calm - 0.01 in Rain Light Rain
8:53 AM 57.9 °F 53.1 °F 84% 29.86 in 10.0 mi Calm Calm - 0.00 in   Overcast
9:53 AM 59.0 °F 53.1 °F 81% 29.85 in 10.0 mi Calm Calm - N/A   Overcast
11:53 AM 60.1 °F 48.9 °F 67% 29.86 in 10.0 mi NW 9.2 mph - 0.00 in Rain Light Rain
12:53 PM 62.1 °F 46.0 °F 56% 29.86 in 10.0 mi WNW 11.5 mph - 0.00 in   Overcast
1:53 PM 64.0 °F 45.0 °F 50% 29.85 in 10.0 mi NW 9.2 mph - N/A   Mostly Cloudy
2:53 PM 66.0 °F 45.0 °F 47% 29.83 in 10.0 mi NW 10.4 mph - N/A   Clear
3:53 PM 66.0 °F 44.1 °F 45% 29.82 in 10.0 mi NW 9.2 mph - N/A   Partly Cloudy
4:53 PM 64.9 °F 44.1 °F 47% 29.82 in 10.0 mi WNW 4.6 mph - N/A   Mostly Cloudy
6:53 PM 60.1 °F 48.0 °F 64% 29.81 in 10.0 mi West 5.8 mph - 0.01 in Rain Light Rain
7:53 PM 59.0 °F 50.0 °F 72% 29.81 in 10.0 mi Calm Calm - 0.01 in Rain Light Rain
8:53 PM 57.9 °F 50.0 °F 75% 29.83 in 10.0 mi WSW 4.6 mph - 0.00 in Rain Light Rain
9:53 PM 57.0 °F 51.1 °F 81% 29.82 in 10.0 mi WNW 9.2 mph - 0.02 in Rain Light Rain
10:53 PM 55.9 °F 51.1 °F 84% 29.83 in 10.0 mi West 5.8 mph - 0.01 in Rain Light Rain
11:53 PM 55.0 °F 51.1 °F 86% 29.83 in 10.0 mi SW 4.6 mph - 0.02 in Rain Light Rain